Time,TemperatureF,DewpointF,PressureIn,WindDirection,WindDirectionDegrees,WindSpeedMPH,WindSpeedGustMPH,Humidity,HourlyPrecipIn,Conditions,Clouds,dailyrainin,SoftwareType,DateUTC
2013-09-04 00:00:00,58.1,53.3,29.91,West,277,0.0,2.0,84,0.00,,---,0.00,VWS V14.01,2013-09-04 05:00:00,
2013-09-04 00:01:00,58.2,53.4,29.91,West,261,0.0,0.0,84,0.00,,---,0.00,VWS V14.01,2013-09-04 05:01:00,
2013-09-04 00:06:00,58.2,53.4,29.91,West,277,1.0,2.0,84,0.00,,---,0.00,VWS V14.01,2013-09-04 05:06:00,
2013-09-04 00:11:00,58.2,53.4,29.91,West,276,0.0,2.0,84,0.00,,---,0.00,VWS V14.01,2013-09-04 05:11:00,
2013-09-04 00:16:00,58.0,53.5,29.91,West,275,0.0,2.0,85,0.00,,---,0.00,VWS V14.01,2013-09-04 05:16:00,
2013-09-04 00:21:00,57.9,53.4,29.91,West,271,0.0,2.0,85,0.00,,---,0.00,VWS V14.01,2013-09-04 05:21:00,
2013-09-04 00:26:00,57.9,53.4,29.91,West,271,0.0,2.0,85,0.00,,---,0.00,VWS V14.01,2013-09-04 05:26:00,
2013-09-04 00:30:00,57.8,53.3,29.91,West,271,0.0,2.0,85,0.00,,---,0.00,VWS V14.01,2013-09-04 05:30:00,
2013-09-04 00:31:00,57.8,53.3,29.91,West,270,0.0,0.0,85,0.00,,---,0.00,VWS V14.01,2013-09-04 05:31:00,
2013-09-04 00:36:00,57.5,53.3,29.91,West,270,0.0,0.0,86,0.00,,---,0.00,VWS V14.01,2013-09-04 05:36:00,
2013-09-04 00:41:00,57.3,53.5,29.91,West,265,0.0,0.0,87,0.00,,---,0.00,VWS V14.01,2013-09-04 05:41:00,
2013-09-04 00:46:00,57.3,53.5,29.91,WNW,299,0.0,0.0,87,0.00,,---,0.00,VWS V14.01,2013-09-04 05:46:00,
2013-09-04 00:51:00,57.3,53.5,29.91,West,272,0.0,0.0,87,0.00,,---,0.00,VWS V14.01,2013-09-04 05:51:00,
2013-09-04 00:56:00,57.3,53.5,29.91,West,272,0.0,0.0,87,0.00,,---,0.00,VWS V14.01,2013-09-04 05:56:00,
2013-09-04 01:00:00,57.3,53.5,29.91,WNW,294,0.0,0.0,87,0.00,,---,0.00,VWS V14.01,2013-09-04 06:00:00,
2013-09-04 01:01:00,57.2,53.4,29.91,WNW,293,0.0,0.0,87,0.00,,---,0.00,VWS V14.01,2013-09-04 06:01:00,
2013-09-04 01:06:00,57.2,53.4,29.91,West,269,0.0,0.0,87,0.00,,---,0.00,VWS V14.01,2013-09-04 06:06:00,
2013-09-04 01:12:00,57.1,53.3,29.91,West,269,0.0,0.0,87,0.00,,---,0.00,VWS V14.01,2013-09-04 06:12:00,
2013-09-04 01:17:00,57.0,53.2,29.91,West,269,0.0,0.0,87,0.00,,---,0.00,VWS V14.01,2013-09-04 06:17:00,
2013-09-04 01:22:00,57.2,53.4,29.91,West,271,0.0,0.0,87,0.00,,---,0.00,VWS V14.01,2013-09-04 06:22:00,
2013-09-04 01:27:00,57.2,53.4,29.91,West,261,0.0,0.0,87,0.00,,---,0.00,VWS V14.01,2013-09-04 06:27:00,
2013-09-04 01:30:00,57.2,53.4,29.91,West,266,0.0,0.0,87,0.00,,---,0.00,VWS V14.01,2013-09-04 06:30:00,
2013-09-04 01:32:00,57.3,53.5,29.91,West,275,0.0,0.0,87,0.00,,---,0.00,VWS V14.01,2013-09-04 06:32:00,
2013-09-04 01:37:00,57.3,53.5,29.91,WNW,283,0.0,0.0,87,0.00,,---,0.00,VWS V14.01,2013-09-04 06:37:00,
2013-09-04 01:42:00,57.3,53.5,29.91,WNW,300,0.0,3.0,87,0.00,,---,0.00,VWS V14.01,2013-09-04 06:42:00,
2013-09-04 01:47:00,57.3,53.5,29.90,West,281,0.0,3.0,87,0.00,,---,0.00,VWS V14.01,2013-09-04 06:47:00,
2013-09-04 01:52:00,57.2,53.4,29.90,West,281,0.0,3.0,87,0.00,,---,0.00,VWS V14.01,2013-09-04 06:52:00,
2013-09-04 01:57:00,57.0,53.2,29.90,West,281,0.0,3.0,87,0.00,,---,0.00,VWS V14.01,2013-09-04 06:57:00,
2013-09-04 02:00:00,56.9,53.4,29.90,West,281,0.0,3.0,88,0.00,,---,0.00,VWS V14.01,2013-09-04 07:00:00,
2013-09-04 02:02:00,56.8,53.3,29.90,West,281,0.0,0.0,88,0.00,,---,0.00,VWS V14.01,2013-09-04 07:02:00,
2013-09-04 02:07:00,56.7,53.2,29.90,WNW,283,0.0,0.0,88,0.00,,---,0.00,VWS V14.01,2013-09-04 07:07:00,
2013-09-04 02:12:00,56.7,53.2,29.90,WNW,282,0.0,0.0,88,0.00,,---,0.00,VWS V14.01,2013-09-04 07:12:00,
2013-09-04 02:17:00,56.7,53.2,29.90,West,279,0.0,0.0,88,0.00,,---,0.00,VWS V14.01,2013-09-04 07:17:00,
2013-09-04 02:22:00,56.8,53.3,29.90,West,280,0.0,0.0,88,0.00,,---,0.00,VWS V14.01,2013-09-04 07:22:00,
2013-09-04 02:27:00,56.7,53.2,29.90,West,277,0.0,0.0,88,0.00,,---,0.00,VWS V14.01,2013-09-04 07:27:00,
2013-09-04 02:30:00,56.7,53.2,29.90,West,277,0.0,0.0,88,0.00,,---,0.00,VWS V14.01,2013-09-04 07:30:00,
2013-09-04 02:32:00,56.6,53.1,29.90,West,277,0.0,0.0,88,0.00,,---,0.00,VWS V14.01,2013-09-04 07:32:00,
2013-09-04 02:37:00,56.3,53.1,29.90,West,277,0.0,0.0,89,0.00,,---,0.00,VWS V14.01,2013-09-04 07:37:00,
2013-09-04 02:42:00,56.1,52.9,29.90,West,280,0.0,0.0,89,0.00,,---,0.00,VWS V14.01,2013-09-04 07:42:00,
2013-09-04 02:47:00,56.2,53.0,29.90,WNW,283,0.0,0.0,89,0.00,,---,0.00,VWS V14.01,2013-09-04 07:47:00,
2013-09-04 02:52:00,56.4,53.2,29.90,WNW,283,0.0,0.0,89,0.00,,---,0.00,VWS V14.01,2013-09-04 07:52:00,
2013-09-04 02:57:00,56.4,53.2,29.90,WNW,283,0.0,0.0,89,0.00,,---,0.00,VWS V14.01,2013-09-04 07:57:00,
2013-09-04 03:02:00,56.3,53.1,29.89,WNW,283,0.0,0.0,89,0.00,,---,0.00,VWS V14.01,2013-09-04 08:02:00,
2013-09-04 03:07:00,56.1,53.2,29.89,WNW,283,0.0,0.0,90,0.00,,---,0.00,VWS V14.01,2013-09-04 08:07:00,
2013-09-04 03:13:00,55.9,53.0,29.89,WNW,283,0.0,0.0,90,0.00,,---,0.00,VWS V14.01,2013-09-04 08:13:00,
2013-09-04 03:18:00,55.8,53.2,29.90,WNW,283,0.0,0.0,91,0.00,,---,0.00,VWS V14.01,2013-09-04 08:18:00,
2013-09-04 03:23:00,55.9,53.3,29.90,WNW,283,0.0,0.0,91,0.00,,---,0.00,VWS V14.01,2013-09-04 08:23:00,
2013-09-04 03:28:00,55.7,53.1,29.90,WNW,282,0.0,0.0,91,0.00,,---,0.00,VWS V14.01,2013-09-04 08:28:00,
2013-09-04 03:30:00,55.7,53.1,29.89,WNW,283,0.0,0.0,91,0.00,,---,0.00,VWS V14.01,2013-09-04 08:30:00,
2013-09-04 03:33:00,55.6,53.0,29.89,WNW,283,0.0,0.0,91,0.00,,---,0.00,VWS V14.01,2013-09-04 08:33:00,
2013-09-04 03:38:00,55.7,53.1,29.89,WNW,283,0.0,0.0,91,0.00,,---,0.00,VWS V14.01,2013-09-04 08:38:00,
2013-09-04 03:43:00,55.7,52.8,29.89,WNW,283,0.0,0.0,90,0.00,,---,0.00,VWS V14.01,2013-09-04 08:43:00,
2013-09-04 03:48:00,55.3,52.7,29.90,WNW,283,0.0,0.0,91,0.00,,---,0.00,VWS V14.01,2013-09-04 08:48:00,
2013-09-04 03:53:00,55.0,52.4,29.90,WNW,283,0.0,0.0,91,0.00,,---,0.00,VWS V14.01,2013-09-04 08:53:00,
2013-09-04 03:58:00,54.7,52.4,29.90,WNW,283,0.0,0.0,92,0.00,,---,0.00,VWS V14.01,2013-09-04 08:58:00,
2013-09-04 04:00:00,54.6,52.3,29.90,WNW,282,0.0,0.0,92,0.00,,---,0.00,VWS V14.01,2013-09-04 09:00:00,
2013-09-04 04:03:00,54.4,52.4,29.90,WNW,283,0.0,0.0,93,0.00,,---,0.00,VWS V14.01,2013-09-04 09:03:00,
2013-09-04 04:08:00,54.2,52.2,29.90,WNW,283,0.0,0.0,93,0.00,,---,0.00,VWS V14.01,2013-09-04 09:08:00,
2013-09-04 04:13:00,54.2,52.5,29.90,WNW,283,0.0,0.0,94,0.00,,---,0.00,VWS V14.01,2013-09-04 09:13:00,
2013-09-04 04:18:00,54.5,53.1,29.90,WNW,283,0.0,0.0,95,0.00,,---,0.00,VWS V14.01,2013-09-04 09:18:00,
2013-09-04 04:23:00,55.0,53.6,29.90,WNW,283,0.0,0.0,95,0.00,,---,0.00,VWS V14.01,2013-09-04 09:23:00,
2013-09-04 04:28:00,55.4,53.7,29.90,WNW,283,0.0,0.0,94,0.00,,---,0.00,VWS V14.01,2013-09-04 09:28:00,
2013-09-04 04:30:00,55.5,53.8,29.91,WNW,282,0.0,0.0,94,0.00,,---,0.00,VWS V14.01,2013-09-04 09:30:00,
2013-09-04 04:33:00,55.5,53.5,29.91,WNW,283,0.0,0.0,93,0.00,,---,0.00,VWS V14.01,2013-09-04 09:33:00,
2013-09-04 04:38:00,55.4,53.4,29.91,WNW,283,0.0,0.0,93,0.00,,---,0.00,VWS V14.01,2013-09-04 09:38:00,
2013-09-04 04:43:00,55.3,53.3,29.91,WNW,282,0.0,0.0,93,0.00,,---,0.00,VWS V14.01,2013-09-04 09:43:00,
2013-09-04 04:48:00,55.1,53.1,29.91,WNW,283,0.0,0.0,93,0.00,,---,0.00,VWS V14.01,2013-09-04 09:48:00,
2013-09-04 04:53:00,54.9,53.2,29.91,WNW,283,0.0,0.0,94,0.00,,---,0.00,VWS V14.01,2013-09-04 09:53:00,
2013-09-04 04:58:00,54.8,53.1,29.91,WNW,283,0.0,0.0,94,0.00,,---,0.00,VWS V14.01,2013-09-04 09:58:00,
2013-09-04 05:00:00,54.8,53.4,29.91,WNW,283,0.0,0.0,95,0.00,,---,0.00,VWS V14.01,2013-09-04 10:00:00,
2013-09-04 05:03:00,54.7,53.3,29.91,WNW,282,0.0,0.0,95,0.00,,---,0.00,VWS V14.01,2013-09-04 10:03:00,
2013-09-04 05:08:00,54.7,53.3,29.91,WNW,283,0.0,0.0,95,0.00,,---,0.00,VWS V14.01,2013-09-04 10:08:00,
2013-09-04 05:13:00,54.5,53.1,29.91,WNW,283,0.0,0.0,95,0.00,,---,0.00,VWS V14.01,2013-09-04 10:13:00,
2013-09-04 05:18:00,54.6,53.2,29.92,WNW,283,0.0,0.0,95,0.00,,---,0.00,VWS V14.01,2013-09-04 10:18:00,
2013-09-04 05:23:00,54.6,53.5,29.92,WNW,282,0.0,0.0,96,0.00,,---,0.00,VWS V14.01,2013-09-04 10:23:00,
2013-09-04 05:29:00,54.6,53.5,29.92,WNW,283,0.0,0.0,96,0.00,,---,0.00,VWS V14.01,2013-09-04 10:29:00,
2013-09-04 05:30:00,54.6,53.5,29.92,WNW,283,0.0,0.0,96,0.00,,---,0.00,VWS V14.01,2013-09-04 10:30:00,
2013-09-04 05:34:00,54.6,53.5,29.92,WNW,283,0.0,0.0,96,0.00,,---,0.00,VWS V14.01,2013-09-04 10:34:00,
2013-09-04 05:39:00,54.5,53.4,29.92,WNW,282,0.0,0.0,96,0.00,,---,0.00,VWS V14.01,2013-09-04 10:39:00,
2013-09-04 05:44:00,54.3,53.2,29.92,WNW,283,0.0,0.0,96,0.00,,---,0.00,VWS V14.01,2013-09-04 10:44:00,
2013-09-04 05:49:00,54.2,53.1,29.92,WNW,282,0.0,0.0,96,0.00,,---,0.00,VWS V14.01,2013-09-04 10:49:00,
2013-09-04 05:54:00,54.1,53.0,29.92,WNW,283,0.0,0.0,96,0.00,,---,0.00,VWS V14.01,2013-09-04 10:54:00,
2013-09-04 05:59:00,54.1,53.0,29.92,WNW,282,0.0,0.0,96,0.00,,---,0.00,VWS V14.01,2013-09-04 10:59:00,
2013-09-04 06:00:00,54.1,53.0,29.93,WNW,283,0.0,0.0,96,0.00,,---,0.00,VWS V14.01,2013-09-04 11:00:00,
2013-09-04 06:04:00,54.1,53.3,29.93,WNW,283,0.0,0.0,97,0.00,,---,0.00,VWS V14.01,2013-09-04 11:04:00,
2013-09-04 06:09:00,54.1,53.0,29.93,WNW,283,0.0,0.0,96,0.00,,---,0.00,VWS V14.01,2013-09-04 11:09:00,
2013-09-04 06:14:00,54.2,53.4,29.93,WNW,283,0.0,0.0,97,0.00,,---,0.00,VWS V14.01,2013-09-04 11:14:00,
2013-09-04 06:19:00,54.3,53.5,29.93,WNW,283,0.0,0.0,97,0.00,,---,0.00,VWS V14.01,2013-09-04 11:19:00,
2013-09-04 06:24:00,54.5,53.7,29.93,WNW,283,0.0,0.0,97,0.00,,---,0.00,VWS V14.01,2013-09-04 11:24:00,
2013-09-04 06:29:00,54.6,53.8,29.95,WNW,283,0.0,0.0,97,0.00,,---,0.00,VWS V14.01,2013-09-04 11:29:00,
2013-09-04 06:30:00,54.7,53.9,29.95,WNW,282,0.0,0.0,97,0.00,,---,0.00,VWS V14.01,2013-09-04 11:30:00,
2013-09-04 06:34:00,54.7,53.9,29.95,WNW,283,0.0,0.0,97,0.00,,---,0.00,VWS V14.01,2013-09-04 11:34:00,
2013-09-04 06:39:00,54.7,53.9,29.95,WNW,283,0.0,0.0,97,0.00,,---,0.00,VWS V14.01,2013-09-04 11:39:00,
2013-09-04 06:44:00,54.6,53.8,29.95,WNW,283,0.0,0.0,97,0.00,,---,0.00,VWS V14.01,2013-09-04 11:44:00,
2013-09-04 06:49:00,54.6,53.8,29.95,WNW,283,0.0,0.0,97,0.00,,---,0.00,VWS V14.01,2013-09-04 11:49:00,
2013-09-04 06:54:00,54.6,53.8,29.95,WNW,283,0.0,0.0,97,0.00,,---,0.00,VWS V14.01,2013-09-04 11:54:00,
2013-09-04 06:59:00,54.4,53.3,29.95,WNW,283,0.0,0.0,96,0.00,,---,0.00,VWS V14.01,2013-09-04 11:59:00,
2013-09-04 07:00:00,54.4,53.3,29.95,WNW,283,0.0,0.0,96,0.00,,---,0.00,VWS V14.01,2013-09-04 12:00:00,
2013-09-04 07:04:00,54.3,53.5,29.95,WNW,282,0.0,0.0,97,0.00,,---,0.00,VWS V14.01,2013-09-04 12:04:00,
2013-09-04 07:09:00,54.4,53.6,29.95,WNW,283,0.0,0.0,97,0.00,,---,0.00,VWS V14.01,2013-09-04 12:09:00,
2013-09-04 07:14:00,54.7,53.9,29.95,WNW,282,0.0,0.0,97,0.00,,---,0.00,VWS V14.01,2013-09-04 12:14:00,
2013-09-04 07:19:00,54.8,54.0,29.95,WNW,282,0.0,0.0,97,0.00,,---,0.00,VWS V14.01,2013-09-04 12:19:00,
2013-09-04 07:24:00,55.6,55.0,29.95,WNW,289,0.0,0.0,98,0.00,,---,0.00,VWS V14.01,2013-09-04 12:24:00,
2013-09-04 07:29:00,56.3,55.8,29.96,WNW,290,0.0,0.0,98,0.00,,---,0.00,VWS V14.01,2013-09-04 12:29:00,
2013-09-04 07:30:00,56.4,55.8,29.96,West,275,0.0,0.0,98,0.00,,---,0.00,VWS V14.01,2013-09-04 12:30:00,
2013-09-04 07:34:00,57.0,56.2,29.96,WNW,288,0.0,0.0,97,0.00,,---,0.00,VWS V14.01,2013-09-04 12:34:00,
2013-09-04 07:40:00,57.8,56.7,29.96,WNW,285,1.0,3.0,96,0.00,,---,0.00,VWS V14.01,2013-09-04 12:40:00,
2013-09-04 07:45:00,58.4,57.0,29.97,West,277,0.0,3.0,95,0.00,,---,0.00,VWS V14.01,2013-09-04 12:45:00,
2013-09-04 07:50:00,58.7,57.0,29.97,West,273,0.0,3.0,94,0.00,,---,0.00,VWS V14.01,2013-09-04 12:50:00,
2013-09-04 07:55:00,59.0,57.3,29.97,WNW,287,0.0,3.0,94,0.00,,---,0.00,VWS V14.01,2013-09-04 12:55:00,
2013-09-04 08:00:00,59.2,57.5,29.97,WSW,247,1.0,3.0,94,0.00,,---,0.00,VWS V14.01,2013-09-04 13:00:00,
2013-09-04 08:05:00,59.4,57.7,29.97,WSW,248,0.0,1.0,94,0.00,,---,0.00,VWS V14.01,2013-09-04 13:05:00,
2013-09-04 08:10:00,59.7,58.0,29.97,WSW,247,0.0,1.0,94,0.00,,---,0.00,VWS V14.01,2013-09-04 13:10:00,
2013-09-04 08:15:00,59.9,57.9,29.98,West,265,0.0,1.0,93,0.00,,---,0.00,VWS V14.01,2013-09-04 13:15:00,
2013-09-04 08:20:00,60.1,58.1,29.98,West,265,0.0,1.0,93,0.00,,---,0.00,VWS V14.01,2013-09-04 13:20:00,
2013-09-04 08:25:00,60.2,57.9,29.98,West,264,0.0,1.0,92,0.00,,---,0.00,VWS V14.01,2013-09-04 13:25:00,
2013-09-04 08:30:00,60.4,58.1,29.98,WSW,242,0.0,1.0,92,0.00,,---,0.00,VWS V14.01,2013-09-04 13:30:00,
2013-09-04 08:35:00,60.6,58.3,29.98,WSW,242,0.0,0.0,92,0.00,,---,0.00,VWS V14.01,2013-09-04 13:35:00,
2013-09-04 08:40:00,60.8,58.5,29.98,SW,234,1.0,4.0,92,0.00,,---,0.00,VWS V14.01,2013-09-04 13:40:00,
2013-09-04 08:45:00,61.1,58.5,29.98,SW,234,0.0,4.0,91,0.00,,---,0.00,VWS V14.01,2013-09-04 13:45:00,
2013-09-04 08:50:00,61.4,58.8,29.98,SW,235,0.0,4.0,91,0.00,,---,0.00,VWS V14.01,2013-09-04 13:50:00,
2013-09-04 08:55:00,61.7,58.7,29.98,SE,125,0.0,4.0,90,0.00,,---,0.00,VWS V14.01,2013-09-04 13:55:00,
2013-09-04 09:00:00,61.8,58.8,29.98,WSW,253,0.0,0.0,90,0.00,,---,0.00,VWS V14.01,2013-09-04 14:00:00,
2013-09-04 09:05:00,62.0,59.0,29.98,WSW,237,0.0,0.0,90,0.00,,---,0.00,VWS V14.01,2013-09-04 14:05:00,
2013-09-04 09:10:00,62.4,59.4,29.98,West,264,1.0,1.0,90,0.00,,---,0.00,VWS V14.01,2013-09-04 14:10:00,
2013-09-04 09:15:00,62.7,59.7,29.98,West,277,0.0,2.0,90,0.00,,---,0.00,VWS V14.01,2013-09-04 14:15:00,
2013-09-04 09:20:00,62.9,59.9,29.98,SSW,203,0.0,2.0,90,0.00,,---,0.00,VWS V14.01,2013-09-04 14:20:00,
2013-09-04 09:25:00,63.2,60.2,29.98,ENE,63,0.0,3.0,90,0.00,,---,0.00,VWS V14.01,2013-09-04 14:25:00,
2013-09-04 09:30:00,63.1,59.8,29.99,East,90,0.0,0.0,89,0.00,,---,0.00,VWS V14.01,2013-09-04 14:30:00,
2013-09-04 09:35:00,63.2,59.9,29.99,East,90,0.0,0.0,89,0.00,,---,0.00,VWS V14.01,2013-09-04 14:35:00,
2013-09-04 09:41:00,63.2,59.9,29.99,East,96,0.0,2.0,89,0.00,,---,0.00,VWS V14.01,2013-09-04 14:41:00,
2013-09-04 09:46:00,63.2,60.2,30.00,East,97,0.0,2.0,90,0.00,,---,0.00,VWS V14.01,2013-09-04 14:46:00,
2013-09-04 09:51:00,63.2,59.9,30.00,South,188,0.0,2.0,89,0.00,,---,0.00,VWS V14.01,2013-09-04 14:51:00,
2013-09-04 09:56:00,63.2,60.2,30.00,East,84,3.0,5.0,90,0.00,,---,0.00,VWS V14.01,2013-09-04 14:56:00,
2013-09-04 10:00:00,63.2,59.9,30.00,ESE,107,0.0,5.0,89,0.00,,---,0.00,VWS V14.01,2013-09-04 15:00:00,
2013-09-04 10:01:00,63.2,59.9,30.00,ESE,108,0.0,0.0,89,0.00,,---,0.00,VWS V14.01,2013-09-04 15:01:00,
2013-09-04 10:06:00,63.4,60.4,30.00,East,95,0.0,5.0,90,0.00,,---,0.00,VWS V14.01,2013-09-04 15:06:00,
2013-09-04 10:11:00,63.6,60.3,30.00,ESE,113,0.0,5.0,89,0.00,,---,0.00,VWS V14.01,2013-09-04 15:11:00,
2013-09-04 10:16:00,63.6,60.3,30.00,East,86,1.0,5.0,89,0.00,,---,0.00,VWS V14.01,2013-09-04 15:16:00,
2013-09-04 10:21:00,63.5,60.2,30.00,ENE,78,0.0,5.0,89,0.00,,---,0.00,VWS V14.01,2013-09-04 15:21:00,
2013-09-04 10:26:00,64.0,60.7,30.00,ENE,78,0.0,5.0,89,0.00,,---,0.00,VWS V14.01,2013-09-04 15:26:00,
2013-09-04 10:30:00,64.4,60.8,30.00,ENE,76,0.0,5.0,88,0.00,,---,0.00,VWS V14.01,2013-09-04 15:30:00,
2013-09-04 10:31:00,64.5,60.9,30.00,ENE,76,0.0,0.0,88,0.00,,---,0.00,VWS V14.01,2013-09-04 15:31:00,
2013-09-04 10:36:00,64.4,60.8,30.00,SE,132,0.0,0.0,88,0.00,,---,0.00,VWS V14.01,2013-09-04 15:36:00,
2013-09-04 10:41:00,64.4,60.8,30.00,West,279,0.0,0.0,88,0.00,,---,0.00,VWS V14.01,2013-09-04 15:41:00,
2013-09-04 10:46:00,64.0,60.4,30.01,NNE,16,0.0,5.0,88,0.00,,---,0.00,VWS V14.01,2013-09-04 15:46:00,
2013-09-04 10:51:00,63.8,60.2,30.01,NNE,32,0.0,5.0,88,0.00,,---,0.00,VWS V14.01,2013-09-04 15:51:00,
2013-09-04 10:56:00,63.7,60.1,30.01,West,264,0.0,5.0,88,0.00,,---,0.00,VWS V14.01,2013-09-04 15:56:00,
2013-09-04 11:00:00,63.5,59.6,30.02,ENE,57,0.0,5.0,87,0.00,,---,0.00,VWS V14.01,2013-09-04 16:00:00,
2013-09-04 11:01:00,63.4,59.8,30.02,ENE,58,0.0,0.0,88,0.00,,---,0.00,VWS V14.01,2013-09-04 16:01:00,
2013-09-04 11:06:00,63.2,59.6,30.02,ENE,74,0.0,2.0,88,0.00,,---,0.00,VWS V14.01,2013-09-04 16:06:00,
2013-09-04 11:11:00,62.9,59.6,30.02,ENE,71,1.0,3.0,89,0.00,,---,0.00,VWS V14.01,2013-09-04 16:11:00,
2013-09-04 11:16:00,62.8,59.5,30.02,East,90,0.0,3.0,89,0.00,,---,0.00,VWS V14.01,2013-09-04 16:16:00,
2013-09-04 11:21:00,63.0,59.4,30.02,NNW,340,0.0,3.0,88,0.00,,---,0.00,VWS V14.01,2013-09-04 16:21:00,
2013-09-04 11:26:00,63.1,59.5,30.02,East,85,0.0,3.0,88,0.00,,---,0.00,VWS V14.01,2013-09-04 16:26:00,
2013-09-04 11:30:00,62.9,59.3,30.02,East,83,0.0,3.0,88,0.00,,---,0.00,VWS V14.01,2013-09-04 16:30:00,
2013-09-04 11:32:00,62.7,59.1,30.02,East,92,0.0,0.0,88,0.00,,---,0.00,VWS V14.01,2013-09-04 16:32:00,
2013-09-04 11:37:00,62.6,59.0,30.02,East,94,0.0,0.0,88,0.00,,---,0.00,VWS V14.01,2013-09-04 16:37:00,
2013-09-04 11:42:00,62.8,59.5,30.02,East,90,0.0,0.0,89,0.00,,---,0.00,VWS V14.01,2013-09-04 16:42:00,
2013-09-04 11:47:00,63.2,59.3,30.02,West,276,0.0,0.0,87,0.00,,---,0.00,VWS V14.01,2013-09-04 16:47:00,
2013-09-04 11:52:00,63.3,59.4,30.02,East,101,0.0,0.0,87,0.00,,---,0.00,VWS V14.01,2013-09-04 16:52:00,
2013-09-04 11:57:00,64.0,59.7,30.02,SW,216,0.0,0.0,86,0.00,,---,0.00,VWS V14.01,2013-09-04 16:57:00,
2013-09-04 12:00:00,64.3,59.7,30.02,NNW,329,0.0,0.0,85,0.00,,---,0.00,VWS V14.01,2013-09-04 17:00:00,
2013-09-04 12:02:00,64.4,59.8,30.02,NNE,15,0.0,0.0,85,0.00,,---,0.00,VWS V14.01,2013-09-04 17:02:00,
2013-09-04 12:07:00,64.6,60.0,30.02,East,94,0.0,0.0,85,0.00,,---,0.00,VWS V14.01,2013-09-04 17:07:00,
2013-09-04 12:12:00,65.0,60.4,30.02,East,81,0.0,0.0,85,0.00,,---,0.00,VWS V14.01,2013-09-04 17:12:00,
2013-09-04 12:17:00,65.2,60.2,30.02,East,81,0.0,0.0,84,0.00,,---,0.00,VWS V14.01,2013-09-04 17:17:00,
2013-09-04 12:22:00,65.0,59.7,30.02,WSW,241,0.0,1.0,83,0.00,,---,0.00,VWS V14.01,2013-09-04 17:22:00,
2013-09-04 12:27:00,65.0,59.7,30.02,SE,126,0.0,2.0,83,0.00,,---,0.00,VWS V14.01,2013-09-04 17:27:00,
2013-09-04 12:30:00,65.0,59.7,30.03,SSW,208,0.0,2.0,83,0.00,,---,0.00,VWS V14.01,2013-09-04 17:30:00,
2013-09-04 12:32:00,65.2,59.6,30.03,SSW,206,0.0,0.0,82,0.00,,---,0.00,VWS V14.01,2013-09-04 17:32:00,
2013-09-04 12:37:00,65.2,59.6,30.03,ENE,72,0.0,2.0,82,0.00,,---,0.00,VWS V14.01,2013-09-04 17:37:00,
2013-09-04 12:42:00,65.6,60.0,30.03,ENE,69,1.0,2.0,82,0.00,,---,0.00,VWS V14.01,2013-09-04 17:42:00,
2013-09-04 12:47:00,65.8,59.8,30.03,ENE,71,0.0,3.0,81,0.00,,---,0.00,VWS V14.01,2013-09-04 17:47:00,
2013-09-04 12:52:00,66.3,59.6,30.03,ENE,78,0.0,3.0,79,0.00,,---,0.00,VWS V14.01,2013-09-04 17:52:00,
2013-09-04 12:57:00,66.6,59.5,30.03,West,279,1.0,3.0,78,0.00,,---,0.00,VWS V14.01,2013-09-04 17:57:00,
2013-09-04 13:00:00,66.7,59.3,30.03,ESE,110,1.0,3.0,77,0.00,,---,0.00,VWS V14.01,2013-09-04 18:00:00,
2013-09-04 13:02:00,66.8,59.7,30.03,West,271,0.0,2.0,78,0.00,,---,0.00,VWS V14.01,2013-09-04 18:02:00,
2013-09-04 13:08:00,67.3,59.5,30.03,West,275,1.0,3.0,76,0.00,,---,0.00,VWS V14.01,2013-09-04 18:08:00,
2013-09-04 13:13:00,67.9,60.1,30.03,WNW,284,1.0,3.0,76,0.00,,---,0.00,VWS V14.01,2013-09-04 18:13:00,
2013-09-04 13:18:00,68.7,60.1,30.03,East,96,0.0,3.0,74,0.00,,---,0.00,VWS V14.01,2013-09-04 18:18:00,
2013-09-04 13:23:00,70.1,60.3,30.03,East,92,0.0,3.0,71,0.00,,---,0.00,VWS V14.01,2013-09-04 18:23:00,
2013-09-04 13:28:00,70.9,59.8,30.03,ENE,74,0.0,3.0,68,0.00,,---,0.00,VWS V14.01,2013-09-04 18:28:00,
2013-09-04 13:30:00,71.3,60.6,30.02,West,267,0.0,3.0,69,0.00,,---,0.00,VWS V14.01,2013-09-04 18:30:00,
2013-09-04 13:33:00,71.5,60.0,30.02,West,273,0.0,0.0,67,0.00,,---,0.00,VWS V14.01,2013-09-04 18:33:00,
2013-09-04 13:38:00,71.8,59.4,30.02,West,265,0.0,0.0,65,0.00,,---,0.00,VWS V14.01,2013-09-04 18:38:00,
2013-09-04 13:43:00,71.1,59.2,30.02,East,84,2.0,3.0,66,0.00,,---,0.00,VWS V14.01,2013-09-04 18:43:00,
2013-09-04 13:48:00,70.7,59.2,30.02,WSW,257,0.0,3.0,67,0.00,,---,0.00,VWS V14.01,2013-09-04 18:48:00,
2013-09-04 13:53:00,70.8,59.7,30.02,WSW,249,1.0,3.0,68,0.00,,---,0.00,VWS V14.01,2013-09-04 18:53:00,
2013-09-04 13:58:00,71.2,59.3,30.02,WSW,255,1.0,3.0,66,0.00,,---,0.00,VWS V14.01,2013-09-04 18:58:00,
2013-09-04 14:00:00,71.1,58.8,30.02,WSW,253,0.0,3.0,65,0.00,,---,0.00,VWS V14.01,2013-09-04 19:00:00,
2013-09-04 14:03:00,70.9,59.0,30.02,WNW,283,2.0,3.0,66,0.00,,---,0.00,VWS V14.01,2013-09-04 19:03:00,
2013-09-04 14:08:00,70.5,58.6,30.02,West,279,3.0,4.0,66,0.00,,---,0.00,VWS V14.01,2013-09-04 19:08:00,
2013-09-04 14:13:00,70.4,58.5,30.02,WNW,284,3.0,5.0,66,0.00,,---,0.00,VWS V14.01,2013-09-04 19:13:00,
2013-09-04 14:18:00,70.3,58.0,30.01,West,264,0.0,5.0,65,0.00,,---,0.00,VWS V14.01,2013-09-04 19:18:00,
2013-09-04 14:23:00,71.1,57.9,30.01,NW,311,1.0,5.0,63,0.00,,---,0.00,VWS V14.01,2013-09-04 19:23:00,
2013-09-04 14:28:00,71.0,57.8,30.01,WSW,244,1.0,5.0,63,0.00,,---,0.00,VWS V14.01,2013-09-04 19:28:00,
2013-09-04 14:30:00,70.9,57.7,30.02,WNW,298,3.0,5.0,63,0.00,,---,0.00,VWS V14.01,2013-09-04 19:30:00,
2013-09-04 14:33:00,71.1,58.8,30.02,NE,47,0.0,3.0,65,0.00,,---,0.00,VWS V14.01,2013-09-04 19:33:00,
2013-09-04 14:38:00,71.4,58.2,30.02,WNW,291,1.0,3.0,63,0.00,,---,0.00,VWS V14.01,2013-09-04 19:38:00,
2013-09-04 14:43:00,71.3,56.7,30.02,West,273,1.0,5.0,60,0.00,,---,0.00,VWS V14.01,2013-09-04 19:43:00,
2013-09-04 14:48:00,70.9,57.7,30.01,West,262,1.0,7.0,63,0.00,,---,0.00,VWS V14.01,2013-09-04 19:48:00,
2013-09-04 14:53:00,71.5,58.3,30.01,WSW,250,1.0,7.0,63,0.00,,---,0.00,VWS V14.01,2013-09-04 19:53:00,
2013-09-04 14:58:00,71.5,57.4,30.01,WNW,292,9.0,9.0,61,0.00,,---,0.00,VWS V14.01,2013-09-04 19:58:00,
2013-09-04 15:00:00,71.2,56.6,30.01,West,261,1.0,9.0,60,0.00,,---,0.00,VWS V14.01,2013-09-04 20:00:00,
2013-09-04 15:04:00,71.0,56.4,30.01,West,275,2.0,4.0,60,0.00,,---,0.00,VWS V14.01,2013-09-04 20:04:00,
2013-09-04 15:09:00,71.0,57.3,30.01,West,279,3.0,6.0,62,0.00,,---,0.00,VWS V14.01,2013-09-04 20:09:00,
2013-09-04 15:14:00,71.2,57.5,30.01,WSW,244,3.0,6.0,62,0.00,,---,0.00,VWS V14.01,2013-09-04 20:14:00,
2013-09-04 15:19:00,71.3,57.6,30.01,WSW,250,1.0,6.0,62,0.00,,---,0.00,VWS V14.01,2013-09-04 20:19:00,
2013-09-04 15:24:00,71.7,57.5,30.01,WSW,248,2.0,6.0,61,0.00,,---,0.00,VWS V14.01,2013-09-04 20:24:00,
2013-09-04 15:29:00,72.1,57.0,30.01,West,264,3.0,6.0,59,0.00,,---,0.00,VWS V14.01,2013-09-04 20:29:00,
2013-09-04 15:30:00,72.1,57.5,30.01,WSW,257,3.0,6.0,60,0.00,,---,0.00,VWS V14.01,2013-09-04 20:30:00,
2013-09-04 15:34:00,71.6,57.5,30.01,West,263,2.0,6.0,61,0.00,,---,0.00,VWS V14.01,2013-09-04 20:34:00,
2013-09-04 15:39:00,71.5,57.4,30.01,WSW,248,3.0,6.0,61,0.00,,---,0.00,VWS V14.01,2013-09-04 20:39:00,
2013-09-04 15:44:00,71.5,57.8,30.01,WNW,283,2.0,6.0,62,0.00,,---,0.00,VWS V14.01,2013-09-04 20:44:00,
2013-09-04 15:49:00,72.1,57.9,30.01,West,261,0.0,6.0,61,0.00,,---,0.00,VWS V14.01,2013-09-04 20:49:00,
2013-09-04 15:54:00,73.2,57.5,30.01,West,261,0.0,6.0,58,0.00,,---,0.00,VWS V14.01,2013-09-04 20:54:00,
2013-09-04 15:59:00,73.5,57.3,30.01,WSW,241,0.0,6.0,57,0.00,,---,0.00,VWS V14.01,2013-09-04 20:59:00,
2013-09-04 16:00:00,73.5,57.3,30.01,WSW,241,0.0,6.0,57,0.00,,---,0.00,VWS V14.01,2013-09-04 21:00:00,
2013-09-04 16:04:00,73.1,57.0,30.01,West,265,0.0,3.0,57,0.00,,---,0.00,VWS V14.01,2013-09-04 21:04:00,
2013-09-04 16:09:00,73.2,57.5,30.01,West,264,4.0,5.0,58,0.00,,---,0.00,VWS V14.01,2013-09-04 21:09:00,
2013-09-04 16:14:00,72.1,54.6,30.01,West,269,2.0,8.0,54,0.00,,---,0.00,VWS V14.01,2013-09-04 21:14:00,
2013-09-04 16:19:00,71.4,54.4,30.01,NW,304,5.0,8.0,55,0.00,,---,0.00,VWS V14.01,2013-09-04 21:19:00,
2013-09-04 16:24:00,71.1,55.1,30.01,West,270,2.0,8.0,57,0.00,,---,0.00,VWS V14.01,2013-09-04 21:24:00,
2013-09-04 16:29:00,71.1,54.6,30.01,West,260,1.0,8.0,56,0.00,,---,0.00,VWS V14.01,2013-09-04 21:29:00,
2013-09-04 16:30:00,71.1,54.6,30.01,WSW,253,1.0,8.0,56,0.00,,---,0.00,VWS V14.01,2013-09-04 21:30:00,
2013-09-04 16:34:00,71.2,55.7,30.01,West,269,1.0,3.0,58,0.00,,---,0.00,VWS V14.01,2013-09-04 21:34:00,
2013-09-04 16:40:00,71.3,56.2,30.01,West,266,2.0,3.0,59,0.00,,---,0.00,VWS V14.01,2013-09-04 21:40:00,
2013-09-04 16:45:00,71.3,55.3,30.01,West,261,1.0,3.0,57,0.00,,---,0.00,VWS V14.01,2013-09-04 21:45:00,
2013-09-04 16:50:00,71.0,55.5,30.01,WNW,291,0.0,5.0,58,0.00,,---,0.00,VWS V14.01,2013-09-04 21:50:00,
2013-09-04 16:55:00,70.9,54.9,30.01,NE,53,0.0,5.0,57,0.00,,---,0.00,VWS V14.01,2013-09-04 21:55:00,
2013-09-04 17:00:00,70.7,56.2,30.01,West,261,0.0,5.0,60,0.00,,---,0.00,VWS V14.01,2013-09-04 22:00:00,
2013-09-04 17:05:00,70.5,55.5,30.01,SSW,210,1.0,1.0,59,0.00,,---,0.00,VWS V14.01,2013-09-04 22:05:00,
2013-09-04 17:10:00,70.3,53.4,30.01,East,90,1.0,4.0,55,0.00,,---,0.00,VWS V14.01,2013-09-04 22:10:00,
2013-09-04 17:15:00,69.9,54.0,30.01,WNW,302,1.0,4.0,57,0.00,,---,0.00,VWS V14.01,2013-09-04 22:15:00,
2013-09-04 17:20:00,69.8,53.4,30.01,West,279,1.0,4.0,56,0.00,,---,0.00,VWS V14.01,2013-09-04 22:20:00,
2013-09-04 17:25:00,69.7,54.8,30.01,WNW,283,0.0,4.0,59,0.00,,---,0.00,VWS V14.01,2013-09-04 22:25:00,
2013-09-04 17:30:00,69.6,54.2,30.01,SW,234,0.0,4.0,58,0.00,,---,0.00,VWS V14.01,2013-09-04 22:30:00,
2013-09-04 17:35:00,69.5,55.0,30.01,South,169,0.0,1.0,60,0.00,,---,0.00,VWS V14.01,2013-09-04 22:35:00,
2013-09-04 17:40:00,69.4,55.8,30.01,West,263,0.0,1.0,62,0.00,,---,0.00,VWS V14.01,2013-09-04 22:40:00,
2013-09-04 17:45:00,69.1,55.1,30.01,NNW,348,0.0,2.0,61,0.00,,---,0.00,VWS V14.01,2013-09-04 22:45:00,
2013-09-04 17:50:00,68.8,55.7,30.01,West,262,0.0,2.0,63,0.00,,---,0.00,VWS V14.01,2013-09-04 22:50:00,
2013-09-04 17:55:00,68.7,55.2,30.01,WSW,247,0.0,2.0,62,0.00,,---,0.00,VWS V14.01,2013-09-04 22:55:00,
2013-09-04 18:00:00,68.6,56.4,30.01,WSW,248,0.0,0.0,65,0.00,,---,0.00,VWS V14.01,2013-09-04 23:00:00,
2013-09-04 18:05:00,68.3,54.8,30.01,ESE,110,1.0,2.0,62,0.00,,---,0.00,VWS V14.01,2013-09-04 23:05:00,
2013-09-04 18:10:00,68.0,54.5,30.01,ESE,105,0.0,2.0,62,0.00,,---,0.00,VWS V14.01,2013-09-04 23:10:00,
2013-09-04 18:15:00,67.8,55.6,30.02,West,263,1.0,2.0,65,0.00,,---,0.00,VWS V14.01,2013-09-04 23:15:00,
2013-09-04 18:20:00,67.5,56.6,30.02,WSW,252,0.0,2.0,68,0.00,,---,0.00,VWS V14.01,2013-09-04 23:20:00,
2013-09-04 18:25:00,67.2,55.0,30.02,SE,136,0.0,2.0,65,0.00,,---,0.00,VWS V14.01,2013-09-04 23:25:00,
2013-09-04 18:30:00,67.0,55.7,30.02,SE,136,0.0,0.0,67,0.00,,---,0.00,VWS V14.01,2013-09-04 23:30:00,
2013-09-04 18:35:00,66.8,55.9,30.02,SE,126,0.0,0.0,68,0.00,,---,0.00,VWS V14.01,2013-09-04 23:35:00,
2013-09-04 18:40:00,66.6,54.9,30.02,SE,126,0.0,0.0,66,0.00,,---,0.00,VWS V14.01,2013-09-04 23:40:00,
2013-09-04 18:45:00,66.4,54.7,30.02,SE,127,0.0,0.0,66,0.00,,---,0.00,VWS V14.01,2013-09-04 23:45:00,
2013-09-04 18:51:00,65.9,55.5,30.02,SE,126,0.0,0.0,69,0.00,,---,0.00,VWS V14.01,2013-09-04 23:51:00,
2013-09-04 18:56:00,65.4,55.0,30.02,SE,126,0.0,0.0,69,0.00,,---,0.00,VWS V14.01,2013-09-04 23:56:00,
2013-09-04 19:00:00,64.9,55.7,30.02,SE,127,0.0,0.0,72,0.00,,---,0.00,VWS V14.01,2013-09-05 00:00:00,
2013-09-04 19:01:00,64.9,56.0,30.02,SE,127,0.0,0.0,73,0.00,,---,0.00,VWS V14.01,2013-09-05 00:01:00,
2013-09-04 19:06:00,64.3,56.6,30.02,SE,126,0.0,0.0,76,0.00,,---,0.00,VWS V14.01,2013-09-05 00:06:00,
2013-09-04 19:11:00,63.8,56.1,30.02,SE,126,0.0,0.0,76,0.00,,---,0.00,VWS V14.01,2013-09-05 00:11:00,
2013-09-04 19:16:00,63.3,55.2,30.03,SE,126,0.0,0.0,75,0.00,,---,0.00,VWS V14.01,2013-09-05 00:16:00,
2013-09-04 19:21:00,62.9,55.2,30.03,SE,127,0.0,0.0,76,0.00,,---,0.00,VWS V14.01,2013-09-05 00:21:00,
2013-09-04 19:26:00,62.4,55.8,30.03,SE,127,0.0,0.0,79,0.00,,---,0.00,VWS V14.01,2013-09-05 00:26:00,
2013-09-04 19:30:00,62.1,55.9,30.03,SE,127,0.0,0.0,80,0.00,,---,0.00,VWS V14.01,2013-09-05 00:30:00,
2013-09-04 19:31:00,62.0,55.8,30.03,SE,127,0.0,0.0,80,0.00,,---,0.00,VWS V14.01,2013-09-05 00:31:00,
2013-09-04 19:36:00,61.3,55.1,30.03,SE,127,0.0,0.0,80,0.00,,---,0.00,VWS V14.01,2013-09-05 00:36:00,
2013-09-04 19:41:00,60.7,54.5,30.03,SE,126,0.0,0.0,80,0.00,,---,0.00,VWS V14.01,2013-09-05 00:41:00,
2013-09-04 19:46:00,60.3,54.5,30.04,NNW,345,0.0,2.0,81,0.00,,---,0.00,VWS V14.01,2013-09-05 00:46:00,
2013-09-04 19:51:00,59.9,54.4,30.04,NNW,345,0.0,2.0,82,0.00,,---,0.00,VWS V14.01,2013-09-05 00:51:00,
2013-09-04 19:56:00,59.6,54.4,30.04,NNW,345,0.0,2.0,83,0.00,,---,0.00,VWS V14.01,2013-09-05 00:56:00,
2013-09-04 20:00:00,59.2,54.4,30.04,NNW,345,0.0,2.0,84,0.00,,---,0.00,VWS V14.01,2013-09-05 01:00:00,
2013-09-04 20:01:00,59.1,54.3,30.04,NNW,344,0.0,0.0,84,0.00,,---,0.00,VWS V14.01,2013-09-05 01:01:00,
2013-09-04 20:06:00,58.7,53.9,30.04,NNW,345,0.0,0.0,84,0.00,,---,0.00,VWS V14.01,2013-09-05 01:06:00,
2013-09-04 20:11:00,58.3,53.8,30.04,NNW,345,0.0,0.0,85,0.00,,---,0.00,VWS V14.01,2013-09-05 01:11:00,
2013-09-04 20:16:00,57.9,53.7,30.05,NNW,344,0.0,0.0,86,0.00,,---,0.00,VWS V14.01,2013-09-05 01:16:00,
2013-09-04 20:21:00,57.4,53.2,30.05,NNW,345,0.0,0.0,86,0.00,,---,0.00,VWS V14.01,2013-09-05 01:21:00,
2013-09-04 20:26:00,57.1,53.3,30.05,NNW,344,0.0,0.0,87,0.00,,---,0.00,VWS V14.01,2013-09-05 01:26:00,
2013-09-04 20:30:00,56.9,53.1,30.06,NNW,345,0.0,0.0,87,0.00,,---,0.00,VWS V14.01,2013-09-05 01:30:00,
2013-09-04 20:31:00,56.8,53.0,30.06,NNW,344,0.0,0.0,87,0.00,,---,0.00,VWS V14.01,2013-09-05 01:31:00,
2013-09-04 20:36:00,56.5,53.0,30.06,NNW,344,0.0,0.0,88,0.00,,---,0.00,VWS V14.01,2013-09-05 01:36:00,
2013-09-04 21:00:00,55.1,52.2,30.07,NNW,345,0.0,0.0,90,0.00,,---,0.00,VWS V14.01,2013-09-05 02:00:00,
2013-09-04 21:30:00,53.7,51.4,30.07,North,0,0.0,0.0,92,0.00,,---,0.00,VWS V14.01,2013-09-05 02:30:00,
2013-09-04 22:00:00,52.2,50.2,30.08,North,0,0.0,0.0,93,0.00,,---,0.00,VWS V14.01,2013-09-05 03:00:00,
2013-09-04 22:30:00,51.0,49.3,30.09,North,0,0.0,0.0,94,0.00,,---,0.00,VWS V14.01,2013-09-05 03:30:00,
2013-09-04 23:00:00,49.8,48.4,30.09,North,0,0.0,0.0,95,0.00,,---,0.00,VWS V14.01,2013-09-05 04:00:00,
2013-09-04 23:30:00,49.0,47.9,30.10,North,0,0.0,0.0,96,0.00,,---,0.00,VWS V14.01,2013-09-05 04:30:00,